Flag for Germany Weather past 2 weeks in Kornwestheim, Baden-Württemberg, Germany

50 °F

Passing clouds.

Feels Like: 45 °F
Forecast: 46 / 51 °F
Wind: 15 mph from Southwest

Location: Stuttgart-Echterdingen

Current Time: Nov 30, 2015 at 8:25:48 PM

Latest Report: Nov 30, 2015 at 7:50 PM

Visibility: N/A

Pressure: 30.12 "Hg

Humidity: 76%

Dew point: 43 °F

Location of KornwestheimLocation

Historic Weather in Kornwestheim — Graph


Kornwestheim temperature yesterday

Maximum temperature yesterday: 48 °F (at 7:20 PM)
Minimum temperature yesterday: 37 °F (at 12:20 AM)
Average temperature yesterday: 43 °F

Past Weeks' High & Low Weather Summary

High68 °F (Nov 16, 1:20 PM)100% (Nov 20, 7:50 AM)30.27 "Hg (Nov 20, 7:50 AM)
Low23 °F (Nov 24, 2:20 AM)23% (Nov 16, 1:20 PM)29.36 "Hg (Nov 21, 2:50 PM)
Average43 °F82%29.96 "Hg
* Reported Nov 15 7:20 PM — Nov 30 7:20 PM, Kornwestheim, Weather by CustomWeather, © 2015

Note: Actual official high and low records may vary slightly from our data, if they occured in-between our weather recording intervals... More about our weather records


Kornwestheim weather history for previous 24 hours

Time TempWeatherWind HumidityBarometerVisibility
7:20 PM
Mon, Nov 30
50 °FLight rain. Partly cloudy.15 mph76%30.15 "HgN/A
6:50 PM50 °FPartly cloudy.14 mph76%30.15 "HgN/A
6:20 PM48 °FLight rain. Partly cloudy.10 mph87%30.15 "HgN/A
5:50 PM48 °FLight rain. Partly cloudy.14 mph82%30.18 "HgN/A
5:20 PM50 °FLight rain. Partly cloudy.14 mph76%30.15 "HgN/A
4:50 PM50 °FPartly cloudy.9 mph71%30.18 "HgN/A
4:20 PM48 °FLight rain. Broken clouds.10 mph82%30.18 "HgN/A
3:50 PM48 °FLight rain. Partly sunny.14 mph82%30.18 "HgN/A
3:20 PM50 °FLight rain. Partly sunny.14 mph76%30.18 "HgN/A
2:50 PM50 °FBroken clouds.12 mph76%30.18 "HgN/A
2:20 PM50 °FBroken clouds.12 mph76%30.18 "HgN/A
1:50 PM50 °FBroken clouds.13 mph76%30.21 "HgN/A
1:20 PM50 °FBroken clouds.15 mph76%30.21 "HgN/A
12:50 PM50 °FBroken clouds.16 mph76%30.21 "HgN/A
12:20 PM50 °FBroken clouds.16 mph76%30.21 "HgN/A
11:50 AM50 °FLight rain. Broken clouds.16 mph76%30.21 "HgN/A
11:20 AM50 °FLight rain. Broken clouds.15 mph76%30.24 "HgN/A
10:50 AM48 °FLight rain. Broken clouds.15 mph82%30.24 "HgN/A
10:20 AM48 °FLight rain. Broken clouds.14 mph82%30.24 "HgN/A
9:50 AM48 °FLight rain. Broken clouds.15 mph82%30.24 "HgN/A
9:20 AM48 °FLight rain. Partly sunny.14 mph82%30.24 "HgN/A
8:20 AM48 °FLight rain. Broken clouds.15 mph82%30.21 "HgN/A
7:50 AM48 °FLight rain. Partly cloudy.17 mph82%30.18 "HgN/A
7:20 AM48 °FPartly cloudy.14 mph82%30.18 "HgN/A
6:50 AM48 °FLight rain. Passing clouds.16 mph82%30.15 "HgN/A
6:20 AM48 °FLight rain. Passing clouds.18 mph82%30.15 "HgN/A
5:50 AM48 °FLight rain. Passing clouds.18 mph82%30.15 "HgN/A
5:20 AM48 °FLight rain. Passing clouds.15 mph82%30.15 "HgN/A
4:20 AM48 °FLight rain. Partly cloudy.17 mph82%30.15 "HgN/A
3:50 AM48 °FPartly cloudy.21 mph82%30.15 "HgN/A
3:20 AM48 °FPartly cloudy.17 mph76%30.15 "HgN/A
2:50 AM48 °FPassing clouds.16 mph76%30.12 "HgN/A
2:20 AM48 °FPartly cloudy.14 mph76%30.12 "HgN/A
1:20 AM48 °FPartly cloudy.15 mph76%30.12 "HgN/A
12:50 AM48 °FPartly cloudy.17 mph76%30.12 "HgN/A
11:50 PM
Sun, Nov 29
48 °FLight rain. Passing clouds.14 mph76%30.12 "HgN/A
11:20 PM48 °FPartly cloudy.18 mph76%30.12 "HgN/A
10:50 PM48 °FPartly cloudy.20 mph76%30.12 "HgN/A
10:20 PM48 °FPassing clouds.18 mph76%30.09 "HgN/A
9:50 PM48 °FPassing clouds.18 mph76%30.09 "HgN/A
9:20 PM48 °FPartly cloudy.17 mph82%30.09 "HgN/A
8:50 PM48 °FPartly cloudy.18 mph76%30.09 "HgN/A
8:20 PM48 °FPartly cloudy.18 mph76%30.09 "HgN/A
Weather by CustomWeather, © 2015

See weather overviewHow to use our weather pages